Overview Statistics Trail Chart Weather Telemetry Raw packets
 

This is the latest recevied weather packets stored in our database for station/object W8RSN-13. If no packets are shown the sender has not sent any weather packets the latest 10 day(s).

<< 76 77 78 79 80 81 82 >>
Time Temp. Humidity Pressure Rain* Wind** Luminosity Snow
1788134656 33.89° C 26% 1011.7 hPa - - - -
1788134355 34.44° C 26% 1011.5 hPa - - - -
1788134075 34.44° C 27% 1011.6 hPa - - - -
1788133774 34.44° C 27% 1011.6 hPa - - - -
1788133473 34.44° C 26% 1011.7 hPa - - - -
1788133172 35° C 27% 1011.6 hPa - - - -
1788132871 34.44° C 26% 1011.6 hPa - - - -
1788132570 35° C 27% 1011.7 hPa - - - -
1788132269 35° C 28% 1011.7 hPa - - - -
1788131969 35° C 27% 1011.7 hPa - - - -
1788131667 35° C 29% 1011.8 hPa - - - -
1788131367 35° C 28% 1011.5 hPa - - - -
1788131066 35.56° C 29% 1011.5 hPa - - - -
1788130765 35° C 30% 1011.9 hPa - - - -
1788130464 35° C 31% 1011.9 hPa - - - -
1788130163 35.56° C 28% 1011.9 hPa - - - -
1788129862 35.56° C 29% 1011.9 hPa - - - -
1788129561 35.56° C 29% 1012.1 hPa - - - -
1788129260 35.56° C 29% 1012 hPa - - - -
1788128959 35.56° C 27% 1011.9 hPa - - - -
1788128659 35.56° C 28% 1012.2 hPa - - - -
1788128358 36.11° C 30% 1012.1 hPa - - - -
1788128057 36.11° C 30% 1012.3 hPa - - - -
1788127756 35.56° C 31% 1012.3 hPa - - - -
1788127475 35.56° C 32% 1012.2 hPa - - - -

* Rain since midnight (hover to see other rain measurements)
** Current wind speed in m/s (hover to see current wind gust speed)